{"data":{"norad_id":82051,"intl_designator":"","name":"UNKNOWN","alt_names":[],"object_type":"UNKNOWN","status":"UNKNOWN","operator":null,"country":null,"launch_date":null,"launch_site_code":null,"launch_vehicle":null,"mission":null,"orbit_class":"UNKNOWN","rcs_meters":null,"size_class":null,"mass_kg":null,"dimensions":null,"purposes":[],"wikipedia_slug":null,"has_3d_model":false,"image_url":null,"decayed_at":null,"tle_current":{"epoch":"2026-09-12T00:50:26.270592Z","epoch_age_seconds":745894,"freshness":"AGED","line1":"1 82051U          26255.03502628  .00003554  00000+0  11213-2 0  9998","line2":"2 82051  98.7427 350.0889 0090205 169.9163 190.3860 14.38612787611674","mean_motion":14.38612787,"eccentricity":0.0090205,"inclination_deg":98.7427,"raan_deg":350.0889,"arg_perigee_deg":169.9163,"mean_anomaly_deg":190.386,"bstar":0.0011213,"rev_number":61167,"period_min":100.09642712845,"perigee_km":698.66808968626,"apogee_km":827.5028845766,"semimajor_km":7141.2224871314,"source":"CELESTRAK","updated_at":"2026-09-20T09:00:32.429859Z"}}}